De Queen, AR

11:17 AM CST on November 12, 2019 (GMT -0600)
Helms Sevier County

Weather History for KDEQ - October, 2019

Change the Weather History Date:

Monday, October 21, 2019

  Actual Average Record
Temperature  
Mean Temperature 58 °F 62 °F  
Max Temperature 72 °F 75 °F 92 °F (1939)
Min Temperature 45 °F 49 °F 22 °F (1989)
Degree Days  
Heating Degree Days 6 5  
Month to date heating degree days 73 63  
Since 1 July heating degree days 73 72  
Cooling Degree Days 0 2  
Month to date cooling degree days 96 56  
Year to date cooling degree days 2313 1921  
Growing Degree Days 8 (Base 50)    
Moisture  
Dew Point 53 °F    
Average Humidity 80    
Maximum Humidity 93    
Minimum Humidity 31    
Precipitation  
Precipitation 0.81 in 0.15 in 1.53 in (1949)
Month to date precipitation 2.51 3.13  
Year to date precipitation 44.60 38.33  
Snow  
Snow 0.00 in - - ()
Month to date snowfall 0.0  
Since 1 July snowfall 0.0  
Since 1 September snowfall 0.0  
Snow Depth 0.00 in    
Sea Level Pressure  
Sea Level Pressure 29.78 in    
Wind  
Wind Speed 7 mph ()    
Max Wind Speed 23 mph    
Max Gust Speed 34 mph    
Visibility 5.9 miles    
Events Fog , Rain , Thunderstorm    
T = Trace of Precipitation, MM = Missing Value Source: Averaged Metar Reports

Daily Weather History Graph

Daily Weather History Graph

Search for Another Location

Airport or City:

Astronomy

Oct. 21, 2019 Rise Set
Actual Time 7:27 AM CDT 6:36 PM CDT
Civil Twilight 7:02 AM CDT 7:01 PM CDT
Nautical Twilight 6:32 AM CDT 7:31 PM CDT
Astronomical Twilight 6:03 AM CDT 8:00 PM CDT
Moon No Moon Rise 2:36 PM CDT (10/21)
Length of Visible Light 11h 59m
Length of Day
11h 09m
Waning Gibbous, 48% of the Moon is Illuminated
Oct 21
Waning Gibbous
Oct 27
New
Nov 4
First Quarter
Nov 12
Full
Nov 19
Last Quarter

Hourly Weather History & Observations

Time (CDT) Temp. Dew Point Humidity Pressure Visibility Wind Dir Wind Speed Gust Speed Precip Events Conditions
12:04 AM 64.0 °F 61.0 °F 90% 29.65 in 0.8 mi South 11.5 mph 24.2 mph 0.30 in Rain , Thunderstorm Heavy Thunderstorms and Rain
12:10 AM 64.0 °F 61.0 °F 90% 29.60 in 3.0 mi SE 12.7 mph 18.4 mph 0.31 in Rain , Thunderstorm Heavy Thunderstorms and Rain
12:42 AM 66.0 °F 61.0 °F 84% 29.56 in 10.0 mi North - - 0.31 in Rain , Thunderstorm Light Rain
12:53 AM 66.9 °F 62.1 °F 84% 29.56 in 10.0 mi WNW 6.9 mph 18.4 mph 0.31 in Thunderstorm Scattered Clouds
1:24 AM 66.9 °F 63.0 °F 87% 29.57 in 10.0 mi Variable 5.8 mph - N/A   Mostly Cloudy
1:51 AM 66.2 °F 62.6 °F 88% 29.65 in 9.0 mi NW 18.4 mph 27.6 mph 0.00 in Rain , Thunderstorm Light Thunderstorms and Rain
1:53 AM 66.9 °F 63.0 °F 87% 29.62 in 10.0 mi NW 18.4 mph 27.6 mph 0.00 in Rain , Thunderstorm Light Thunderstorms and Rain
2:21 AM 64.0 °F 61.0 °F 90% 29.67 in - WNW 11.5 mph - 0.04 in Thunderstorm Thunderstorm
2:29 AM 64.0 °F 61.0 °F 90% 29.66 in 1.0 mi West 9.2 mph 18.4 mph 0.20 in Rain , Thunderstorm Heavy Thunderstorms and Rain
2:45 AM 64.9 °F 62.1 °F 90% 29.61 in 2.0 mi WSW 5.8 mph - 0.32 in Rain , Thunderstorm Heavy Thunderstorms and Rain
2:53 AM 64.0 °F 62.1 °F 93% 29.60 in 3.0 mi West 5.8 mph - 0.33 in Rain , Thunderstorm Heavy Thunderstorms and Rain
3:03 AM 64.9 °F 62.1 °F 90% 29.67 in 2.5 mi West 10.4 mph - 0.03 in Rain , Thunderstorm Heavy Thunderstorms and Rain
3:08 AM 64.9 °F 62.1 °F 90% 29.64 in 1.8 mi West 5.8 mph - 0.07 in Rain , Thunderstorm Heavy Rain
3:20 AM 64.9 °F 62.1 °F 90% 29.66 in 3.0 mi WSW 6.9 mph - 0.09 in Rain , Thunderstorm Rain
3:30 AM 64.9 °F 63.0 °F 93% 29.66 in 3.0 mi SW 4.6 mph - 0.10 in Rain , Thunderstorm Heavy Thunderstorms and Rain
3:42 AM 64.9 °F 63.0 °F 93% 29.65 in 2.5 mi WSW 4.6 mph - 0.14 in Rain , Thunderstorm Heavy Rain
3:53 AM 64.9 °F 63.0 °F 93% 29.65 in 3.0 mi WSW 5.8 mph - 0.17 in Rain , Thunderstorm Heavy Rain
4:15 AM 64.9 °F 63.0 °F 93% 29.65 in 3.0 mi West 6.9 mph - N/A Rain Rain
4:23 AM 64.9 °F 63.0 °F 93% 29.65 in 5.0 mi SW 4.6 mph - N/A Rain , Thunderstorm Rain
4:44 AM 64.9 °F 63.0 °F 93% 29.65 in 10.0 mi WSW 6.9 mph - N/A   Overcast
4:53 AM 64.9 °F 63.0 °F 93% 29.65 in 10.0 mi WSW 6.9 mph - N/A   Overcast
5:53 AM 64.9 °F 63.0 °F 93% 29.66 in 10.0 mi Calm Calm - N/A   Overcast
6:25 AM 64.0 °F 62.1 °F 93% 29.68 in 10.0 mi WSW 4.6 mph - N/A   Partly Cloudy
6:53 AM 64.0 °F 59.0 °F 84% 29.69 in 10.0 mi NW 10.4 mph - N/A   Clear
7:53 AM 60.1 °F 52.0 °F 75% 29.73 in 10.0 mi WSW 4.6 mph - N/A   Clear
8:53 AM 60.1 °F 48.9 °F 67% 29.79 in 10.0 mi Variable 5.8 mph - N/A   Clear
10:53 AM 66.0 °F 41.0 °F 40% 29.83 in 10.0 mi NW 9.2 mph - N/A   Clear
11:53 AM 66.9 °F 41.0 °F 39% 29.84 in 10.0 mi NW 5.8 mph - N/A   Clear
12:53 PM 69.1 °F 42.1 °F 38% 29.84 in 10.0 mi West 8.1 mph - N/A   Clear
1:53 PM 71.1 °F 44.1 °F 38% 29.82 in 10.0 mi Variable 6.9 mph - N/A   Clear
2:53 PM 71.1 °F 41.0 °F 34% 29.82 in 10.0 mi West 9.2 mph - N/A   Clear
3:53 PM 71.1 °F 39.0 °F 31% 29.82 in 10.0 mi NW 11.5 mph - N/A   Clear
4:53 PM 71.1 °F 39.0 °F 31% 29.84 in 10.0 mi NW 8.1 mph - N/A   Clear
5:53 PM 68.0 °F 46.0 °F 45% 29.85 in 10.0 mi West 5.8 mph - N/A   Clear
6:53 PM 62.1 °F 46.0 °F 56% 29.88 in 10.0 mi SW 3.5 mph - N/A   Clear
7:53 PM 55.9 °F 48.9 °F 77% 29.93 in 10.0 mi Calm Calm - N/A   Clear
8:53 PM 52.0 °F 48.9 °F 89% 29.97 in 10.0 mi Calm Calm - N/A   Clear
9:53 PM 48.9 °F 46.9 °F 93% 29.99 in 5.0 mi Calm Calm - N/A   Clear
10:07 PM 50.0 °F 46.9 °F 89% 30.00 in 2.0 mi Calm Calm - N/A   Clear
10:20 PM 50.0 °F 46.9 °F 89% 30.01 in 1.0 mi Calm Calm - N/A   Clear
10:27 PM 48.9 °F 46.9 °F 93% 30.01 in 3.0 mi Calm Calm - N/A   Clear
10:45 PM 48.0 °F 46.0 °F 93% 30.01 in 2.0 mi Calm Calm - N/A   Partly Cloudy
10:48 PM 48.2 °F 46.4 °F 93% 30.02 in 1.0 mi Calm Calm - N/A   Mist
10:53 PM 48.0 °F 46.0 °F 93% 30.01 in 0.8 mi Calm Calm - N/A   Mist
10:58 PM 48.9 °F 46.0 °F 90% 30.02 in 1.2 mi Calm Calm - N/A   Partly Cloudy
11:06 PM 48.0 °F 46.0 °F 93% 30.02 in 3.0 mi Calm Calm - N/A   Partly Cloudy
11:27 PM 46.9 °F 45.0 °F 93% 30.02 in 1.5 mi Calm Calm - N/A   Partly Cloudy
11:29 PM 46.9 °F 45.0 °F 93% 30.02 in 0.8 mi Calm Calm - N/A   Mist
11:53 PM 46.0 °F 44.1 °F 93% 30.01 in 0.5 mi Calm Calm - N/A Fog Fog